Regional Weather Roundup
Issued by NWS

Home | Current Version | Previous Version | Graphics & Text | Print | Product List | Glossary On
Versions: 1 2 3 4 5 6 7 8 9 10 11 12 13 14 15 16 17 18 19 20 21 22 23 24 25 26 27 28 29 30 31 32 33 34 35 36 37 38 39 40 41 42 43 44 45 46 47 48 49 50
000
ASUS44 KMEG 012100
RWRTN
TENNESSEE HOURLY STATE WEATHER ROUNDUP
NATIONAL WEATHER SERVICE MEMPHIS TN
400 PM CDT SAT OCT 01 2016

TNZ002-004-019-021-049-052-054-088>092-012200-
WEST TENNESSEE

CITY           SKY/WX    TMP DP  RH WIND       PRES   REMARKS
MEMPHIS INTL   PTSUNNY   76  54  46 SW5       30.03F
NWS MEMPHIS      N/A     78 N/A N/A MISG        N/A
JACKSON        CLOUDY   N/A N/A N/A W8        30.05S
DYERSBURG      CLOUDY   N/A N/A N/A MISG        N/A
PARIS          CLOUDY    70  55  60 W5        30.05S
$$

TNZ008-025-027-028-033-062-065-066-012200-
NORTH MIDDLE TENNESSEE

CITY           SKY/WX    TMP DP  RH WIND       PRES   REMARKS
NASHVILLE      PTSUNNY   71  55  56 W8        30.05S
CLARKSVILLE    CLOUDY    70  57  63 W9        30.03F
SMYRNA         CLOUDY    73  57  57 W9        30.05S
COOKEVILLE     PTSUNNY   75  57  53 VRB7      30.04S
CROSSVILLE     CLOUDY    68  51  54 W8        30.08S
$$

TNZ061-075-076-078-094-096-097-012200-
SOUTH MIDDLE TENNESSEE

CITY           SKY/WX    TMP DP  RH WIND       PRES   REMARKS
SHELBYVILLE    CLOUDY    75  55  50 W6        30.05S
$$

TNZ017-018-042-046-047-012200-
NORTHEAST TENNESSEE

CITY           SKY/WX    TMP DP  RH WIND       PRES   REMARKS
TRI CITIES     PTSUNNY   72  48  42 SW3       30.06F
$$

TNZ012-013-036-069-073-074-012200-
CENTRAL EAST TENNESSEE

CITY           SKY/WX    TMP DP  RH WIND       PRES   REMARKS
KNOXVILLE      PTSUNNY   76  50  40 W8        30.04S
OAK RIDGE      CLOUDY    75  51  43 VRB5      30.06S
GATLINBURG     MOSUNNY   75  48  38 NW8       30.04S
$$

TNZ083-085-099-012200-
SOUTHEAST TENNESSEE

CITY           SKY/WX    TMP DP  RH WIND       PRES   REMARKS
CHATTANOOGA    PTSUNNY   78  50  37 W9        30.03F
$$

SKY/WX REPORTED AS FAIR MEANS FEW OR NO CLOUDS BELOW
12 THOUSAND FEET.





USA.gov is the U.S. government's official web portal to all federal, state and local government web resources and services.